Regional Weather Roundup
Issued by NWS Northern Indiana

Home | Current Version | Previous Version | Text Only | Print | Product List | Glossary Off
Versions: 1 2 3 4 5 6 7 8 9 10 11 12 13 14 15 16 17 18 19 20 21 22 23 24 25 26 27 28 29 30 31 32 33 34 35 36 37 38 39 40 41 42 43 44 45 46 47 48 49 50

000
ASUS43 KIWX 271610
RWRIWX

KIWX WEATHER ROUNDUP
NATIONAL WEATHER SERVICE NORTHERN INDIANA
1100 AM EST FRI FEB 27 2015

NOTE: "FAIR" INDICATES FEW OR NO CLOUDS BELOW 12,000 FEET WITH NO
SIGNIFICANT WEATHER AND/OR OBSTRUCTIONS TO VISIBILITY.

* THESE STATIONS ARE NOT UNDER NWS QUALITY CONTROL. THEY ALSO MAY NOT
  REPORT WEATHER SUCH AS PRECIPITATION OR FOG.

INZ001>027-271700-
NORTHERN INDIANA

CITY           SKY/WX    TMP DP  RH WIND       PRES   REMARKS
GARY*          SUNNY     12  -8  40 W14       30.60R WCI  -3
VALPARAISO     SUNNY     12  -3  51 W8        30.58R WCI   0
MICHIGAN CITY* SUNNY     14  -2  48 W8        30.58S WCI   3
LAPORTE*       MOSUNNY   13  10  87 W6        30.57S WCI   4
KNOX*            N/A      9 -13  37 CALM      30.58S
SOUTH BEND     PTSUNNY   14  -1  51 W7        30.57R WCI   4
ELKHART*       SUNNY     12  -6  44 SW3       30.57R
GOSHEN         SUNNY      9  -2  61 CALM      30.56R
MONTICELLO*    SUNNY      4  -4  70 SW5       30.59R WCI  -5
LOGANSPORT*    SUNNY      5   1  85 SW6       30.60R WCI  -6
ROCHESTER*     SUNNY     14   3  62 CALM      30.58R
WARSAW*        SUNNY     14  -2  48 CALM      30.56R
ANGOLA*        SUNNY     10  -6  48 NW7       30.53R WCI   0
FORT WAYNE     MOSUNNY   12  -2  53 NW6       30.56R WCI   3
HUNTINGTON*    SUNNY     14   0  53 CALM      30.56R
PERU/GRISSOM   SUNNY      5  -1  73 W7        30.57R WCI  -7
MARION*        SUNNY     10   2  70 W5        30.57R WCI   1

$$
INZ028>050-271700-
CENTRAL INDIANA

CITY           SKY/WX    TMP DP  RH WIND       PRES   REMARKS
LAFAYETTE      SUNNY      9  -2  61 W5        30.62R WCI   1
KOKOMO*        SUNNY      9   0  66 W9        30.58R WCI  -5
MUNCIE*        SUNNY     11   3  70 N5        30.56R WCI   3
INDIANAPOLIS   MOSUNNY   13   0  56 W9        30.59R WCI   1

$$
MIZ043>046-050>051-056>058-064>065-071>073-077>080-271700-
SOUTHWEST LOWER MICHIGAN

CITY           SKY/WX    TMP DP  RH WIND       PRES   REMARKS
BATTLE CREEK   SUNNY      8  -7  50 SW5       30.53R WCI   0
BENTON HARBOR  CLOUDY    10  -3  55 S10       30.57R WCI  -4
COLDWATER*     SUNNY      8  -6  51 CALM      30.53R
HILLSDALE*     SUNNY      9  -4  57 NW3       30.49R
HOLLAND        SUNNY     12  -3  51 S9        30.55R WCI   0
GRAND RAPIDS   MOSUNNY    7  -8  50 S10       30.54R WCI  -8
KALAMAZOO      SUNNY      9  -7  48 S5        30.54R WCI   1
STURGIS*       SUNNY      5  -6  61 S3        30.54R
THREE RIVERS*  FAIR      10  -5  50 CALM      30.56R

$$
OHZ001>008-015>018-024>025-271700-
NORTHWEST OHIO

CITY           SKY/WX    TMP DP  RH WIND       PRES   REMARKS
WAUSEON*       FAIR       7  -6  56 CALM      30.56R
DEFIANCE       SUNNY      7  -3  64 NW5       30.57R WCI  -2
FINDLAY        SUNNY      8   3  80 S3        30.54R
TOLEDO EXPRESS FLURRIES   7  -4  60 NW6       30.56R WCI  -3
TOLEDO METCALF SUNNY      8  -2  63 SW7       30.57R WCI  -3
LIMA           SUNNY     10   2  69 S3        30.53R

$$
AND FOR LAKE MICHIGAN COASTAL AND OPEN LAKE BUOY OBSERVATIONS

STATION/POSITION TEMP    WIND        PRES    VSBY  WAVE
                 AIR SEA DIR/SP/G                  HT/PER
                 (F)     (DEG/KT/KT) (MB)    (MI)  (FT/S)
CALUMET HARBOR    12     260/  6/ 11 1034.5R
MICHIGAN CITY      9     210/ 10/ 12   N/A
SAINT JOSEPH      14     180/  8/ 10 1035.6R

$$
&&


USA.gov is the U.S. government's official web portal to all federal, state and local government web resources and services.